GW5679 Weather Reports


Display with metric or nautical units.
time (UTC)temp
F
wind
direction
speed
MPH
gust
MPH
rain 1hr
in
rain 24hr
in
rain mn
in
humidity
%
barometer
mb
20260503010522 73 72 2.0 4.0 0.00 0.00 0.00 42 1017.9
20260503010020 74 93 2.0 4.0 0.00 0.00 0.00 42 1017.7
20260503005517 74 118 1.0 4.0 0.00 0.00 0.00 42 1017.9
20260503005015 74 90 0.0 2.0 0.00 0.00 0.00 41 1017.7
20260503004510 74 47 3.0 7.0 0.00 0.00 0.00 40 1017.7
20260503004008 75 69 3.0 4.0 0.00 0.00 0.00 40 1017.5
20260503003505 75 33 2.0 3.0 0.00 0.00 0.00 40 1017.5
20260503003002 75 32 4.0 7.0 0.00 0.00 0.00 40 1017.4
20260503002459 75 23 4.0 9.0 0.00 0.00 0.00 39 1017.2
20260503001955 75 49 3.0 9.0 0.00 0.00 0.00 39 1017.1
20260503001452 75 19 6.0 8.0 0.00 0.00 0.00 39 1017.2
20260503000949 75 19 7.0 11.0 0.00 0.00 0.00 39 1017.3
20260503000447 76 350 9.0 11.0 0.00 0.00 0.00 38 1017.2
20260502235944 76 21 2.0 9.0 0.00 0.00 0.00 38 1017.0
20260502235440 76 46 5.0 7.0 0.00 0.00 0.00 38 1016.8
20260502234938 76 55 2.0 6.0 0.00 0.00 0.00 38 1017.1
20260502234434 75 28 7.0 10.0 0.00 0.00 0.00 38 1017.1
20260502233932 76 358 9.0 11.0 0.00 0.00 0.00 37 1017.0
20260502233427 76 348 4.0 15.0 0.00 0.00 0.00 37 1017.2
20260502232924 76 44 4.0 10.0 0.00 0.00 0.00 37 1017.0
20260502232420 76 12 6.0 8.0 0.00 0.00 0.00 37 1016.9
20260502231918 76 34 6.0 11.0 0.00 0.00 0.00 37 1016.9
20260502231415 76 354 9.0 15.0 0.00 0.00 0.00 36 1017.0
20260502230913 76 96 4.0 9.0 0.00 0.00 0.00 35 1017.0
20260502230411 76 357 9.0 17.0 0.00 0.00 0.00 35 1017.0
20260502225909 76 4 5.0 18.0 0.00 0.00 0.00 35 1016.7
20260502225404 76 1 6.0 18.0 0.00 0.00 0.00 34 1016.8
20260502224901 76 14 10.0 11.0 0.00 0.00 0.00 35 1016.8
20260502224357 76 13 8.0 14.0 0.00 0.00 0.00 35 1016.7
20260502223855 77 35 10.0 14.0 0.00 0.00 0.00 33 1016.8
20260502223352 77 61 6.0 15.0 0.00 0.00 0.00 35 1016.8
20260502222850 77 35 9.0 11.0 0.00 0.00 0.00 34 1016.9
20260502222348 77 141 10.0 15.0 0.00 0.00 0.00 35 1016.8
20260502221843 76 36 7.0 13.0 0.00 0.00 0.00 36 1017.1
20260502221339 76 3 15.0 19.0 0.00 0.00 0.00 36 1017.1
20260502220837 76 342 12.0 23.0 0.00 0.00 0.00 34 1017.2
20260502220332 77 99 7.0 14.0 0.00 0.00 0.00 35 1016.9
20260502215829 77 328 10.0 16.0 0.00 0.00 0.00 36 1016.9
20260502215327 76 24 11.0 15.0 0.00 0.00 0.00 38 1017.2
20260502214824 76 12 14.0 18.0 0.00 0.00 0.00 37 1017.1
20260502214320 76 39 6.0 11.0 0.00 0.00 0.00 37 1017.1
20260502213817 76 324 11.0 18.0 0.00 0.00 0.00 37 1017.2
20260502213314 77 16 9.0 11.0 0.00 0.00 0.00 37 1016.9
20260502212814 77 56 4.0 13.0 0.00 0.00 0.00 37 1017.2
20260502212311 76 8 10.0 16.0 0.00 0.00 0.00 36 1017.4
20260502211808 76 45 10.0 17.0 0.00 0.00 0.00 36 1017.1
20260502211304 76 311 11.0 18.0 0.00 0.00 0.00 38 1017.5
20260502210802 77 66 8.0 15.0 0.00 0.00 0.00 38 1017.1
20260502210259 76 34 6.0 13.0 0.00 0.00 0.00 36 1017.4
20260502205756 76 41 5.0 17.0 0.00 0.00 0.00 37 1017.2
20260502205251 76 107 5.0 14.0 0.00 0.00 0.00 37 1017.4
20260502204749 76 23 15.0 19.0 0.00 0.00 0.00 37 1017.3
20260502204246 75 37 6.0 17.0 0.00 0.00 0.00 40 1017.4
20260502203744 75 334 9.0 17.0 0.00 0.00 0.00 38 1017.5
20260502203242 76 37 10.0 15.0 0.00 0.00 0.00 38 1017.4
20260502202736 75 278 8.0 10.0 0.00 0.00 0.00 38 1017.5
20260502202234 75 1 9.0 10.0 0.00 0.00 0.00 39 1017.9
20260502201731 76 63 11.0 16.0 0.00 0.00 0.00 38 1017.8
20260502201227 75 18 8.0 10.0 0.00 0.00 0.00 39 1017.9
20260502200724 76 17 4.0 14.0 0.00 0.00 0.00 38 1017.9
20260502200220 75 31 6.0 11.0 0.00 0.00 0.00 38 1018.0
20260502195719 76 318 9.0 19.0 0.00 0.00 0.00 39 1018.1
20260502195215 75 45 3.0 16.0 0.00 0.00 0.00 39 1018.0
20260502194711 75 348 13.0 17.0 0.00 0.00 0.00 38 1018.0
20260502194209 75 39 7.0 14.0 0.00 0.00 0.00 38 1018.1
20260502193704 75 12 14.0 16.0 0.00 0.00 0.00 38 1018.3
20260502193202 74 30 9.0 16.0 0.00 0.00 0.00 40 1018.4
20260502192657 74 67 8.0 13.0 0.00 0.00 0.00 42 1018.5
20260502192154 74 80 5.0 13.0 0.00 0.00 0.00 40 1018.4
20260502191651 75 19 9.0 14.0 0.00 0.00 0.00 39 1018.6
20260502191149 75 18 10.0 15.0 0.00 0.00 0.00 40 1018.7
20260502190646 74 12 11.0 15.0 0.00 0.00 0.00 40 1018.5
20260502190144 74 339 12.0 19.0 0.00 0.00 0.00 41 1018.5
20260502185638 74 4 10.0 22.0 0.00 0.00 0.00 40 1018.4
20260502185135 74 342 12.0 19.0 0.00 0.00 0.00 40 1018.5
20260502184631 74 56 4.0 10.0 0.00 0.00 0.00 42 1018.6
20260502184127 74 280 4.0 9.0 0.00 0.00 0.00 42 1018.6
20260502183624 73 76 6.0 14.0 0.00 0.00 0.00 41 1018.7
20260502183120 73 40 10.0 16.0 0.00 0.00 0.00 43 1018.9
20260502182615 73 18 8.0 16.0 0.00 0.00 0.00 41 1019.0
20260502182111 73 4 9.0 16.0 0.00 0.00 0.00 42 1018.9
20260502181609 73 332 10.0 14.0 0.00 0.00 0.00 44 1019.0
20260502181108 72 10 14.0 23.0 0.00 0.00 0.00 42 1019.0
20260502180604 73 18 13.0 21.0 0.00 0.00 0.00 43 1018.9
20260502164007 71 24 6.0 16.0 0.00 0.00 0.00 47 1019.4
20260502163503 70 335 7.0 10.0 0.00 0.00 0.00 51 1019.5
20260502163000 70 37 6.0 16.0 0.00 0.00 0.00 51 1019.4
20260502162457 69 341 6.0 11.0 0.00 0.00 0.00 50 1019.4
20260502161954 69 357 9.0 14.0 0.00 0.00 0.00 53 1019.4
20260502161450 68 38 6.0 14.0 0.00 0.00 0.00 53 1019.4
20260502160949 68 35 7.0 14.0 0.00 0.00 0.00 55 1019.4
20260502160446 68 330 5.0 13.0 0.00 0.00 0.00 56 1019.4
20260502151929 65 38 6.0 9.0 0.00 0.00 0.00 67 1019.3
20260502151426 65 14 9.0 15.0 0.00 0.00 0.00 65 1019.3
20260502150924 66 48 5.0 15.0 0.00 0.00 0.00 66 1019.2
20260502150420 64 38 7.0 13.0 0.00 0.00 0.00 68 1019.6
20260502130306 56 309 4.0 9.0 0.00 0.00 0.00 87 1017.9
20260502123751 55 334 5.0 9.0 0.00 0.00 0.00 88 1017.8
20260502123248 55 18 4.0 11.0 0.00 0.00 0.00 89 1017.7
20260502122745 55 1 5.0 9.0 0.00 0.00 0.00 89 1017.7
20260502122241 55 99 1.0 4.0 0.00 0.00 0.00 89 1017.6
20260502121740 54 20 3.0 7.0 0.00 0.00 0.00 89 1017.4
20260502121237 54 35 4.0 10.0 0.00 0.00 0.00 89 1017.4
20260502120733 54 13 5.0 6.0 0.00 0.00 0.00 89 1017.4
20260502120230 54 343 3.0 4.0 0.00 0.00 0.00 89 1017.3
20260502115728 54 31 4.0 4.0 0.00 0.00 0.00 89 1017.3
20260502115225 54 13 4.0 4.0 0.00 0.00 0.00 89 1017.2
20260502114720 54 349 4.0 6.0 0.00 0.00 0.00 89 1017.1
20260502114218 54 17 3.0 7.0 0.00 0.00 0.00 89 1017.3
20260502113715 54 319 2.0 2.0 0.00 0.00 0.00 89 1017.3
20260502113213 54 30 4.0 4.0 0.00 0.00 0.00 89 1017.1
20260502112711 54 327 3.0 6.0 0.00 0.00 0.00 89 1017.1
20260502112208 54 20 6.0 7.0 0.00 0.00 0.00 89 1017.1
20260502111705 54 359 5.0 7.0 0.00 0.00 0.00 88 1017.0
20260502111203 54 34 3.0 4.0 0.00 0.00 0.00 88 1016.8
20260502110700 55 41 4.0 6.0 0.00 0.00 0.00 88 1016.8
20260502110157 55 305 3.0 9.0 0.00 0.00 0.00 88 1016.6
20260502105655 55 355 4.0 7.0 0.00 0.00 0.00 88 1016.8
20260502105151 55 17 4.0 8.0 0.00 0.00 0.00 88 1016.3
20260502104649 55 8 6.0 11.0 0.00 0.00 0.00 87 1016.6
20260502104146 55 313 4.0 6.0 0.00 0.00 0.00 87 1016.3
20260502103643 55 0 3.0 6.0 0.00 0.00 0.00 87 1016.3
20260502103141 55 8 4.0 8.0 0.00 0.00 0.00 87 1016.3
20260502102638 55 28 4.0 7.0 0.00 0.00 0.00 87 1016.3
20260502102135 55 349 4.0 7.0 0.00 0.00 0.00 86 1016.1
20260502101633 55 34 4.0 7.0 0.00 0.00 0.00 86 1016.2
20260502101131 55 54 3.0 6.0 0.00 0.00 0.00 86 1015.9
20260502100629 55 70 4.0 7.0 0.00 0.00 0.00 86 1016.0
20260502100127 55 39 4.0 7.0 0.00 0.00 0.00 86 1015.7
20260502091101 56 49 3.0 6.0 0.00 0.00 0.00 84 1015.2
20260502090558 56 30 3.0 6.0 0.00 0.00 0.00 84 1015.0
20260502071452 56 346 6.0 10.0 0.00 0.00 0.00 88 1014.7
20260502070950 57 12 7.0 8.0 0.00 0.00 0.00 88 1014.8
20260502070448 57 62 3.0 10.0 0.00 0.00 0.00 88 1014.9
20260502065946 57 3 11.0 13.0 0.00 0.00 0.00 88 1014.9
20260502065444 57 14 6.0 9.0 0.00 0.00 0.00 88 1015.0
20260502064942 57 24 11.0 18.0 0.00 0.00 0.00 88 1014.7
20260502064440 57 350 9.0 14.0 0.00 0.00 0.00 88 1014.9
20260502063937 57 53 2.0 11.0 0.00 0.00 0.00 88 1014.8
20260502063434 57 342 9.0 15.0 0.00 0.00 0.00 88 1014.9
20260502062932 57 359 7.0 15.0 0.00 0.00 0.00 88 1014.7
20260502062429 57 36 10.0 14.0 0.00 0.00 0.00 88 1014.4
20260502061928 57 12 9.0 13.0 0.00 0.00 0.00 88 1014.4
20260502061425 57 28 5.0 16.0 0.00 0.00 0.00 88 1014.6
20260502060921 57 15 6.0 14.0 0.00 0.00 0.00 88 1014.4
20260502060416 57 17 10.0 13.0 0.00 0.00 0.00 88 1014.5
20260502055913 57 46 7.0 17.0 0.00 0.00 0.00 88 1014.4
20260502055411 57 344 7.0 17.0 0.00 0.00 0.00 88 1014.3
20260502054911 57 44 9.0 17.0 0.00 0.00 0.00 88 1014.5
20260502054408 57 3 5.0 13.0 0.00 0.00 0.00 89 1014.5
20260502053905 57 8 4.0 8.0 0.00 0.00 0.00 89 1014.3
20260502053403 57 92 4.0 10.0 0.00 0.00 0.00 89 1014.4
20260502052900 57 28 6.0 11.0 0.00 0.00 0.00 89 1014.3
20260502052358 57 45 10.0 14.0 0.00 0.00 0.00 89 1014.6
20260502051855 57 35 7.0 11.0 0.00 0.00 0.00 89 1014.5
20260502051354 57 52 5.0 11.0 0.00 0.00 0.00 89 1014.4
20260502050850 57 355 6.0 9.0 0.00 0.00 0.00 89 1014.4
20260502050347 57 21 9.0 17.0 0.00 0.00 0.00 89 1014.4
20260502045844 57 37 9.0 14.0 0.00 3.45 3.45 89 1014.4
20260502045340 57 17 9.0 17.0 0.00 3.45 3.45 90 1014.4
20260502044838 57 357 11.0 18.0 0.00 3.45 3.45 90 1014.5
20260502044333 57 17 11.0 17.0 0.00 3.45 3.45 90 1014.4
20260502043831 57 311 11.0 14.0 0.00 3.45 3.45 90 1014.4
20260502043329 57 31 6.0 17.0 0.00 3.45 3.45 91 1014.5
20260502042828 57 56 11.0 17.0 0.00 3.45 3.45 91 1014.6
20260502042326 57 320 5.0 8.0 0.00 3.45 3.45 91 1014.5
20260502041823 57 357 8.0 17.0 0.00 3.45 3.45 91 1014.4
20260502041320 57 50 6.0 13.0 0.00 3.45 3.45 92 1014.4
20260502040817 57 35 6.0 14.0 0.00 3.45 3.45 92 1014.2
20260502040314 57 327 9.0 14.0 0.00 3.45 3.45 92 1014.4
20260502035810 57 33 10.0 13.0 0.00 3.45 3.45 92 1014.3
20260502035307 57 287 10.0 17.0 0.00 3.45 3.45 93 1014.3
20260502034804 57 7 7.0 15.0 0.00 3.45 3.45 93 1014.3
20260502034303 57 345 11.0 15.0 0.00 3.45 3.45 93 1014.1
20260502033800 57 46 8.0 11.0 0.00 3.45 3.45 93 1014.0
20260502033258 57 2 10.0 13.0 0.00 3.45 3.45 93 1014.1
20260502032754 58 22 9.0 17.0 0.00 3.45 3.45 93 1013.9
20260502032251 57 121 4.0 16.0 0.00 3.45 3.45 93 1014.0
20260502031749 57 32 8.0 11.0 0.00 3.45 3.45 93 1013.7
20260502031246 57 26 5.0 13.0 0.00 3.45 3.45 93 1013.4
20260502030745 57 346 4.0 14.0 0.00 3.45 3.45 94 1013.5
20260502030242 57 31 6.0 15.0 0.00 3.45 3.45 94 1012.7
20260502025739 57 39 4.0 15.0 0.00 3.45 3.45 94 1012.8
20260502025237 57 49 14.0 21.0 0.00 3.45 3.45 94 1012.6
20260502024735 57 32 12.0 15.0 0.00 3.45 3.45 94 1012.8
20260502024232 57 36 4.0 15.0 0.00 3.45 3.45 94 1012.8
20260502023730 57 247 12.0 16.0 0.00 3.45 3.45 95 1012.4
20260502023228 58 3 10.0 17.0 0.00 3.45 3.45 95 1012.4
20260502022725 58 34 6.0 13.0 0.00 3.45 3.45 95 1012.5
20260502022221 58 36 7.0 16.0 0.07 3.45 3.45 95 1012.6
20260502021719 58 22 7.0 11.0 0.12 3.45 3.45 95 1012.7
20260502021216 58 75 10.0 22.0 0.12 3.44 3.44 95 1012.7
20260502020713 59 31 7.0 10.0 0.12 3.43 3.43 95 1012.7
20260502020210 59 34 6.0 8.0 0.05 3.42 3.42 95 1012.4
20260502015708 59 339 5.0 11.0 0.07 3.41 3.41 95 1012.4
20260502015204 59 328 6.0 13.0 0.07 3.41 3.41 95 1012.5
20260502014702 59 349 10.0 11.0 0.00 3.40 3.40 95 1012.5
20260502014158 59 21 8.0 9.0 0.00 3.40 3.40 95 1012.4
20260502013654 59 22 6.0 11.0 0.00 3.40 3.40 95 1012.1
20260502013149 59 347 7.0 8.0 0.00 3.40 3.40 95 1012.1
20260502012647 59 336 11.0 16.0 0.05 3.40 3.40 95 1011.5
20260502012146 59 8 11.0 18.0 0.05 3.40 3.40 95 1011.5
20260502011642 59 28 6.0 11.0 0.07 3.39 3.39 95 1011.3
20260502011137 59 22 6.0 11.0 0.12 3.39 3.39 95 1011.3